Hourly Data Report for October 08, 2014

All times are specified in Local Standard Time (LST). Add 1 hour to adjust for Daylight Saving Time where and when it is observed.

MONCTON INTL A
NEW BRUNSWICK

46°06'44.000" N
64°40'43.000" W
70.70 m
8103201
71705
YQM

Download Data

Hourly Data (October 2014)
Hourly Data Report for October 8, 2014
Temp Definition
°C
Dew Point Temp Definition
°C
Rel Hum Definition
%
Wind Dir Definition
10's deg

Wind Spd Definition
km/h
Visibility Definition
km
Stn Press Definition
kPa
Hmdx Definition


Wind Chill Definition


Weather Definition


TIME
00:00 Legend Double Dagger 12.3 10.6 89 18 14 24.1 101.25     LegendNANA
01:00 Legend Double Dagger 12.8 10.9 88 16 22 24.1 101.19     LegendNANA
02:00 Legend Double Dagger 13.0 10.9 87 16 19 24.1 101.15     Cloudy
03:00 Legend Double Dagger 13.0 10.6 85 17 20 24.1 101.10     LegendNANA
04:00 Legend Double Dagger 13.3 10.7 84 17 19 24.1 101.04     LegendNANA
05:00 Legend Double Dagger 12.8 10.4 85 15 9 24.1 100.94     Mostly Cloudy
06:00 Legend Double Dagger 13.1 10.7 85 15 10 24.1 100.88     LegendNANA
07:00 Legend Double Dagger 13.3 11.0 86 14 22 24.1 100.81     LegendNANA
08:00 Legend Double Dagger 13.6 11.8 89 15 19 24.1 100.78     Cloudy
09:00 Legend Double Dagger 14.0 12.4 90 14 17 24.1 100.71     LegendNANA
10:00 Legend Double Dagger 14.5 13.2 92 15 9 24.1 100.70     Rain
11:00 Legend Double Dagger 16.5 13.1 80 16 21 24.1 100.53     Mostly Cloudy
12:00 Legend Double Dagger 18.7 12.5 67 16 34 24.1 100.32     LegendNANA
13:00 Legend Double Dagger 19.0 13.9 72 14 33 24.1 100.13     LegendNANA
14:00 Legend Double Dagger 19.3 13.8 70 14 33 24.1 100.04     Mostly Cloudy
15:00 Legend Double Dagger 16.7 15.4 92 15 19 12.9 100.00     Rain
16:00 Legend Double Dagger 16.6 15.3 92 15 25 19.3 99.85     LegendNANA
17:00 Legend Double Dagger 17.1 15.6 91 16 29 24.1 99.72     Mostly Cloudy
18:00 Legend Double Dagger 16.7 15.6 93 15 23 19.3 99.60     Rain Showers
19:00 Legend Double Dagger 16.7 15.7 94 18 23 12.9 99.58     Rain
20:00 Legend Double Dagger 16.6 15.1 91 19 21 24.1 99.59     Mostly Cloudy
21:00 Legend Double Dagger 15.3 13.4 88 21 16 24.1 99.59     LegendNANA
22:00 Legend Double Dagger 14.2 12.8 91 22 18 24.1 99.64     LegendNANA
23:00 Legend Double Dagger 13.3 12.2 93 22 15 24.1 99.65     Mainly Clear

Notes on Data Quality.

Legend

  • E = Estimated
  • M = Missing
  • NA = Not Available
  • ‡ = Partner data that is not subject to review by the National Climate Archives
Date modified: